Погода в Яснополянке

Россия / Калининградская область     55°11′01″N   21°24′26″E
темп.,
°C
ветер,
м/с
пор.,
м/с
влажн.,
%
обл.,
%
осадки,
мм/ч
давл.,
гПа
погр.,
м
14 мая, пт
пт1423:00+10св478467 0.0 1003476
02:00+10всв3691100 0.1 1002422
05:00+9вюв2395100 0.2 1001157
08:00+11юв238591 0.3 1001512
11:00+14юз336587 0.4 10011247
14:00+14зюз456782 0.6 10021088
17:00+13зюз457182 0.0 1003641
20:00+8з239699 0.0 100374
15 мая, сб
сб1523:00+7з1197100 0.0 100411
02:00+7ссз00977 0.0 100510
05:00+7ю019542 0.0 100522
08:00+11юз128289 0.0 1006299
11:00+14зюз226790 0.0 1007567
14:00+16зсз336141 0.0 1006988
17:00+15з447083 0.0 1007515
20:00+11зсз2386100 0.0 1007110
16 мая, вс
вс1623:00+10з229086 0.0 100875
02:00+10юв119092 0.0 100814
05:00+8юв229663 0.0 100823
08:00+13юв3484100 0.0 1008437
11:00+18юв45595 0.0 10071066
14:00+20юв5852100 0.0 10051808
17:00+16юв5985100 1.7 1004441
20:00+14ююв4993100 5.8 1003351
17 мая, пн
пн1723:00+12ююз3798100 1.8 1004335
02:00+10юз2499100 2.4 1005165
05:00+10з2399100 0.1 1005109
08:00+11юз2393100 0.1 1006273
11:00+15юз1369100 0.2 1006791
14:00+17юз23645 1.8 10061147
17:00+16ююз34796 1.4 1006738
20:00+12юз22925 3.8 100529
18 мая, вт
вт1823:00+10ююз22944 0.0 100516
02:00+9ю24968 0.0 100568
05:00+8ююз259680 0.0 1005123
08:00+12ююз35887 0.1 1006450
11:00+14зюз4679100 0.6 1007855
14:00+15зюз457077 1.1 10081152
17:00+15з2369100 0.4 1008754
20:00+11зсз1187100 0.4 100811